(228844) = 2003 EX51 = 2005 UJ397

Discovered at Palomar on 2003-03-11 by NEAT.

Orbit

Orbit type: Main Belt

Note: WebGL enabled browser required.

epoch2023-09-13.0
epoch JD2460200.5
perihelion date2020-11-29.57531
perihelion JD2459183.07531
argument of perihelion (°)38.17139
ascending node (°)67.11222
inclination (°)3.27496
eccentricity0.1643715
perihelion distance (AU)1.9806404
Tisserand w.r.t. Jupiter3.5
ΔV w.r.t. Earth (km/sec)8.8
semimajor axis (AU)2.3702404
mean anomaly (°)274.80051
mean daily motion (°/day)0.27009420
aphelion distance (AU)2.760
period (years)3.65
P-vector [x]-0.26266728
P-vector [y]0.87062937
P-vector [z]0.41594520
Q-vector [x]-0.96345005
Q-vector [y]-0.26016864
Q-vector [z]-0.06384578
absolute magnitude17.38
phase slope0.15
uncertainty0
referenceMPEC 2023-X152
observations used401
oppositions11
arc length (days)7575
first opposition used2003
last opposition used2023
residual rms (arc-secs)0.72
perturbers coarse indicatorM-v
perturbers precise indicator003Ek
first observation date used2003-03-11.0
last observation date used2023-12-06.0
computer nameMPCLINUX
JD of orbit computation2456937.360413
perihelion JD uncertainty (days)7.5283E-05
argument of perihelion uncertainty (°)9.1092E-05
ascending node uncertainty (°)8.7630E-05
inclination uncertainty (°)4.9595E-06
eccentricity uncertainty 5.0362E-08
perihelion distance uncertainty (AU)1.1320E-07
Minimum Orbit Intersection Distances (in AU)
for orbit epoch: 2460200.5, reference: E2023-XF2
Mercury1.66498
Venus1.2617
Earth0.99735
Mars0.35634
Jupiter2.37208
Saturn7.03505
Uranus16.2189
Neptune27.4143

Observations

413 total observations over interval: 2003 03 11.26660 – 2023 12 06.244816
These data are available for download (format description).

Date (UT) J2000 RA J2000 Dec Magn Location Ref
2003 03 11.26660 11 58 19.80 +06 26 45.8 19.9   644 – Palomar Mountain/NEAT MPS 74485
2003 03 11.33740 11 58 15.66 +06 27 10.8 20.1   644 – Palomar Mountain/NEAT MPS 74485
2003 03 11.40238 11 58 11.78 +06 27 33.0 19.8   644 – Palomar Mountain/NEAT MPS 74485
2003 03 12.41087 11 57 14.30 +06 33 23.0 19.9   644 – Palomar Mountain/NEAT MPS 74485
2003 03 12.44190 11 57 12.46 +06 33 33.9 19.8   644 – Palomar Mountain/NEAT MPS 74485
2003 03 12.46399 11 57 11.15 +06 33 40.8 20.2   644 – Palomar Mountain/NEAT MPS 74485
2003 03 25.22465 11 45 01.58 +07 39 35.7 19.8   644 – Palomar Mountain/NEAT MPS 76253
2003 03 25.30342 11 44 57.05 +07 39 56.6 19.9   644 – Palomar Mountain/NEAT MPS 76253
2003 03 25.36823 11 44 53.31 +07 40 13.4 20.5   644 – Palomar Mountain/NEAT MPS 76253
2003 03 26.20561 11 44 08.01 +07 43 48.9 20.1   644 – Palomar Mountain/NEAT MPS 76253
2003 03 26.22806 11 44 06.73 +07 43 54.5 20.5   644 – Palomar Mountain/NEAT MPS 76253
2003 03 26.24926 11 44 05.56 +07 44 00.0 20.3   644 – Palomar Mountain/NEAT MPS 76253
2005 10 28.24874 03 00 56.19 +14 22 18.0 19.5 V 703 – Catalina Sky Survey MPS 151083
2005 10 28.25406 03 00 55.98 +14 22 16.3 19.7 V 703 – Catalina Sky Survey MPS 151083
2005 10 28.25944 03 00 55.54 +14 22 15.6 19.9 V 703 – Catalina Sky Survey MPS 151083
2005 10 28.26478 03 00 55.26 +14 22 15.5 20.0 V 703 – Catalina Sky Survey MPS 151083
2005 10 31.28775 02 57 58.12 +14 14 25.0 19.3   704 – Lincoln Laboratory ETS, New Mexico MPS 151083
2005 10 31.29965 02 57 57.40 +14 14 23.1 19.4   704 – Lincoln Laboratory ETS, New Mexico MPS 151083
2005 10 31.31158 02 57 56.63 +14 14 19.7 19.4   704 – Lincoln Laboratory ETS, New Mexico MPS 151083
2005 10 31.32348 02 57 55.94 +14 14 19.2 20.0   704 – Lincoln Laboratory ETS, New Mexico MPS 151083
2005 10 31.33541 02 57 55.16 +14 14 16.4 19.6   704 – Lincoln Laboratory ETS, New Mexico MPS 151083
2005 11 05.21776 02 52 55.25 +14 01 05.0 19.8 V 691 – Steward Observatory, Kitt Peak-Spacewatch MPS 151083
2005 11 05.24273 02 52 53.60 +14 01 01.1 19.8 V 691 – Steward Observatory, Kitt Peak-Spacewatch MPS 151083
2005 11 05.26782 02 52 51.95 +14 00 57.1 19.8 V 691 – Steward Observatory, Kitt Peak-Spacewatch MPS 151083
2005 11 06.26384 02 51 49.31 +13 58 13.7 19.6   704 – Lincoln Laboratory ETS, New Mexico MPS 151083
2005 11 06.27638 02 51 48.55 +13 58 12.5 19.9   704 – Lincoln Laboratory ETS, New Mexico MPS 151083
2005 11 06.28882 02 51 47.66 +13 58 10.6 19.8   704 – Lincoln Laboratory ETS, New Mexico MPS 151083
2005 11 06.30124 02 51 46.87 +13 58 08.7 19.6   704 – Lincoln Laboratory ETS, New Mexico MPS 151083
2005 11 06.31372 02 51 46.05 +13 58 06.2 19.6   704 – Lincoln Laboratory ETS, New Mexico MPS 151083
2005 11 10.28649 02 47 35.34 +13 47 23.8 19.4 V 703 – Catalina Sky Survey MPS 150697
2005 11 10.29294 02 47 35.01 +13 47 24.0 20.1 V 703 – Catalina Sky Survey MPS 150697
2005 11 10.29935 02 47 34.54 +13 47 23.8 19.4 V 703 – Catalina Sky Survey MPS 150697
2005 11 10.30582 02 47 34.11 +13 47 21.8 19.6 V 703 – Catalina Sky Survey MPS 150697
2005 11 25.19333 02 33 07.66 +13 14 36.2 19.9 V 703 – Catalina Sky Survey MPS 152034
2005 11 25.20083 02 33 07.23 +13 14 36.1 20.4 V 703 – Catalina Sky Survey MPS 152034
2005 11 25.20831 02 33 06.87 +13 14 34.2 19.2 V 703 – Catalina Sky Survey MPS 152034
2005 11 25.21582 02 33 06.37 +13 14 35.3 20.3 V 703 – Catalina Sky Survey MPS 152034
2005 11 25.25099 02 33 04.57 +13 14 32.1 19.6 V 703 – Catalina Sky Survey MPS 152034
2005 11 25.25830 02 33 04.21 +13 14 29.5 19.7 V 703 – Catalina Sky Survey MPS 152034
2005 11 25.26579 02 33 03.78 +13 14 30.3 19.8 V 703 – Catalina Sky Survey MPS 152034
2005 11 25.27312 02 33 03.42 +13 14 28.1 19.4 V 703 – Catalina Sky Survey MPS 152034
2006 01 21.08859 02 38 31.20 +15 42 12.7 20.8 V G96 – Mt. Lemmon Survey MPS 160391
2006 01 21.09389 02 38 31.56 +15 42 14.4 21.3 V G96 – Mt. Lemmon Survey MPS 160391
2006 01 21.09920 02 38 31.84 +15 42 16.5 21.3 V G96 – Mt. Lemmon Survey MPS 160391
2006 01 21.10451 02 38 32.13 +15 42 18.4 21.0 V G96 – Mt. Lemmon Survey MPS 160391
2007 04 14.36029 15 07 24.75 -14 55 29.5 20.8 V 691 – Steward Observatory, Kitt Peak-Spacewatch MPS 206862
2007 04 14.37791 15 07 23.86 -14 55 26.0 20.9 V 691 – Steward Observatory, Kitt Peak-Spacewatch MPS 206862
2007 04 14.39553 15 07 22.96 -14 55 23.5 21.0 V 691 – Steward Observatory, Kitt Peak-Spacewatch MPS 206862
2007 04 18.33759 15 04 00.93 -14 44 35.2 21.1 V 691 – Steward Observatory, Kitt Peak-Spacewatch MPS 206862
2007 04 18.35521 15 03 59.95 -14 44 32.4 21.1 V 691 – Steward Observatory, Kitt Peak-Spacewatch MPS 206862
2007 04 18.37285 15 03 58.94 -14 44 29.0 21.2 V 691 – Steward Observatory, Kitt Peak-Spacewatch MPS 206862
2007 04 26.31723 14 56 25.54 -14 20 11.1 20.9 V 691 – Steward Observatory, Kitt Peak-Spacewatch MPS 208035
2007 04 26.33485 14 56 24.46 -14 20 07.9 20.8 V 691 – Steward Observatory, Kitt Peak-Spacewatch MPS 208035
2007 04 26.35247 14 56 23.37 -14 20 04.6 21.0 V 691 – Steward Observatory, Kitt Peak-Spacewatch MPS 208035
2007 05 09.34785 14 43 09.69 -13 37 50.3 20.3 V G96 – Mt. Lemmon Survey MPS 208867
2007 05 09.35341 14 43 09.33 -13 37 49.4 20.8 V G96 – Mt. Lemmon Survey MPS 208867
2007 05 09.35896 14 43 08.97 -13 37 47.9 20.4 V G96 – Mt. Lemmon Survey MPS 208867
2007 05 09.36451 14 43 08.65 -13 37 47.4 20.2 V G96 – Mt. Lemmon Survey MPS 208867
2007 05 14.25268 14 38 20.90 -13 22 50.5   691 – Steward Observatory, Kitt Peak-Spacewatch MPS 208867
2007 05 14.25829 14 38 20.60 -13 22 49.6   691 – Steward Observatory, Kitt Peak-Spacewatch MPS 208867
2007 05 14.26298 14 38 20.33 -13 22 48.7   691 – Steward Observatory, Kitt Peak-Spacewatch MPS 208867
2007 05 15.32350 14 37 19.83 -13 19 43.9   291 – LPL/Spacewatch II MPS 208867
2007 05 15.32928 14 37 19.51 -13 19 43.0   291 – LPL/Spacewatch II MPS 208867
2007 05 15.33311 14 37 19.21 -13 19 43.4   291 – LPL/Spacewatch II MPS 208868
2009 11 11.47705 08 04 54.55 +22 14 24.1 20.6 V G96 – Mt. Lemmon Survey MPS 302132
2009 11 11.48411 08 04 54.94 +22 14 24.0 20.7 V G96 – Mt. Lemmon Survey MPS 302132
2009 11 11.49845 08 04 55.77 +22 14 23.7 20.4 V G96 – Mt. Lemmon Survey MPS 302132
2009 12 18.40284 08 18 15.46 +23 22 39.4 19.6 V 691 – Steward Observatory, Kitt Peak-Spacewatch MPS 307249
2009 12 18.42057 08 18 15.04 +23 22 44.0 19.6 V 691 – Steward Observatory, Kitt Peak-Spacewatch MPS 307249
2009 12 18.43830 08 18 14.62 +23 22 48.5 19.6 V 691 – Steward Observatory, Kitt Peak-Spacewatch MPS 307249
2009 12 19.40927 08 17 53.87 +23 27 00.0 19.7 V 691 – Steward Observatory, Kitt Peak-Spacewatch MPS 308600
2009 12 19.42701 08 17 53.43 +23 27 04.5 19.6 V 691 – Steward Observatory, Kitt Peak-Spacewatch MPS 308600
2009 12 19.44477 08 17 52.95 +23 27 09.4 19.8 V 691 – Steward Observatory, Kitt Peak-Spacewatch MPS 308600
2009 12 27.34723 08 13 44.52 +24 04 33.9   691 – Steward Observatory, Kitt Peak-Spacewatch MPS 308600
2009 12 27.36495 08 13 43.74 +24 04 39.1   691 – Steward Observatory, Kitt Peak-Spacewatch MPS 308600
2009 12 27.38273 08 13 43.00 +24 04 44.7   691 – Steward Observatory, Kitt Peak-Spacewatch MPS 308600
2010 01 06.27031 08 05 41.42 +24 55 52.6 19.5 V 703 – Catalina Sky Survey MPS 310098
2010 01 06.27601 08 05 41.20 +24 55 55.3 19.2 V 703 – Catalina Sky Survey MPS 310098
2010 01 06.28179 08 05 40.77 +24 55 56.7 19.3 V 703 – Catalina Sky Survey MPS 310098
2010 01 06.28754 08 05 40.41 +24 55 59.3 19.3 V 703 – Catalina Sky Survey MPS 310098
2010 01 06.39889 08 05 33.79 +24 56 32.4 19.2 V G96 – Mt. Lemmon Survey MPS 310098
2010 01 06.40604 08 05 33.36 +24 56 34.8 19.3 V G96 – Mt. Lemmon Survey MPS 310098
2010 01 06.41315 08 05 32.92 +24 56 37.2 19.3 V G96 – Mt. Lemmon Survey MPS 310098
2010 01 06.42034 08 05 32.53 +24 56 39.4 19.2 V G96 – Mt. Lemmon Survey MPS 310098
2010 01 12.27251 07 59 44.20 +25 26 14.1 19.0   704 – Lincoln Laboratory ETS, New Mexico MPS 311132
2010 01 12.28500 07 59 43.33 +25 26 18.8 19.6   704 – Lincoln Laboratory ETS, New Mexico MPS 311132
2010 01 12.29749 07 59 42.47 +25 26 21.9 19.4   704 – Lincoln Laboratory ETS, New Mexico MPS 311132
2010 01 12.29947 07 59 42.39 +25 26 22.4 19.3 V 703 – Catalina Sky Survey MPS 311132
